CYP470 LCLK-LGMK

Flight info

Callsign CYP470
Flight time 1h 18m
Altitude 38000
Route PHA DCT GENOS DCT PEDER DCT EVENO UM601 RDS UL995 USINI DCT AKINA UL995 VARIX
Aircraft A320/M-SDE3FGHIRWY/LB1

Departure

Time 2026-04-20 06:07
Airport Larnaca International Airport (LCLK)

Arrival

Time 2026-04-20 07:26
Airport Mykonos Island National Airport (LGMK)
Time Latitude Longitude Altitude Speed Heading
2026-04-20 06:04 34.86460 33.61022 26 ft 8 kts 76°
2026-04-20 06:05 34.86474 33.61091 22 ft 9 kts 76°
2026-04-20 06:05 34.86484 33.61138 22 ft 4 kts 75°
2026-04-20 06:05 34.86492 33.61174 21 ft 5 kts 75°
2026-04-20 06:05 34.86500 33.61211 21 ft 5 kts 75°
2026-04-20 06:06 34.86510 33.61259 21 ft 7 kts 75°
2026-04-20 06:06 34.86523 33.61313 22 ft 6 kts 74°
2026-04-20 06:06 34.86536 33.61364 20 ft 6 kts 66°
2026-04-20 06:06 34.86571 33.61411 18 ft 12 kts 46°
2026-04-20 06:07 34.86822 33.61711 17 ft 94 kts 45°
2026-04-20 06:07 34.87460 33.62478 51 ft 157 kts 44°
2026-04-20 06:07 34.88250 33.63425 736 ft 162 kts 44°
2026-04-20 06:07 34.89071 33.64414 1470 ft 168 kts 43°
2026-04-20 06:08 34.89916 33.65426 2220 ft 172 kts 43°
2026-04-20 06:08 34.90809 33.66527 2573 ft 192 kts 43°
2026-04-20 06:08 34.91937 33.67512 2869 ft 211 kts 14°
2026-04-20 06:08 34.93417 33.67366 3180 ft 227 kts 329°
2026-04-20 06:09 34.94446 33.65973 3904 ft 225 kts 287°
2026-04-20 06:09 34.94666 33.64105 4791 ft 225 kts 273°
2026-04-20 06:09 34.94737 33.62177 5645 ft 229 kts 272°
2026-04-20 06:09 34.94793 33.60203 6418 ft 238 kts 271°
2026-04-20 06:10 34.94830 33.58126 7071 ft 253 kts 270°
2026-04-20 06:10 34.94881 33.55991 8099 ft 244 kts 273°
2026-04-20 06:10 34.94985 33.53978 9268 ft 239 kts 274°
2026-04-20 06:10 34.95101 33.51900 9284 ft 244 kts 274°
2026-04-20 06:11 34.95205 33.49827 9647 ft 251 kts 274°
2026-04-20 06:11 34.95328 33.47714 10586 ft 249 kts 274°
2026-04-20 06:11 34.95459 33.45608 11482 ft 249 kts 274°
2026-04-20 06:11 34.95584 33.43499 12339 ft 250 kts 274°
2026-04-20 06:12 34.95704 33.41381 13148 ft 251 kts 274°
2026-04-20 06:12 34.95819 33.39247 13916 ft 254 kts 274°
2026-04-20 06:12 34.95934 33.37093 14664 ft 256 kts 274°
2026-04-20 06:12 34.96051 33.34942 15372 ft 259 kts 274°
2026-04-20 06:13 34.96179 33.32745 16082 ft 261 kts 277°
2026-04-20 06:13 34.96602 33.30567 16589 ft 273 kts 288°
2026-04-20 06:13 34.97252 33.28286 16762 ft 296 kts 288°
2026-04-20 06:13 34.97965 33.25831 16907 ft 318 kts 289°
2026-04-20 06:14 34.98731 33.23204 17055 ft 338 kts 289°
2026-04-20 06:14 34.99540 33.20427 17192 ft 358 kts 289°
2026-04-20 06:14 35.00386 33.17523 17599 ft 367 kts 289°
2026-04-20 06:14 35.01245 33.14569 18204 ft 371 kts 289°
2026-04-20 06:15 35.02109 33.11582 18801 ft 375 kts 289°
2026-04-20 06:15 35.02975 33.08579 19414 ft 377 kts 289°
2026-04-20 06:15 35.03850 33.05538 20012 ft 381 kts 289°
2026-04-20 06:15 35.04726 33.02479 20586 ft 384 kts 289°
2026-04-20 06:16 35.05611 32.99383 21123 ft 387 kts 289°
2026-04-20 06:16 35.06502 32.96274 21657 ft 390 kts 289°
2026-04-20 06:16 35.07402 32.93135 22177 ft 392 kts 289°
2026-04-20 06:16 35.08291 32.89976 22666 ft 395 kts 288°
2026-04-20 06:17 35.09167 32.86785 23149 ft 397 kts 288°
2026-04-20 06:17 35.10037 32.83571 23605 ft 400 kts 288°
2026-04-20 06:17 35.10906 32.80342 24053 ft 402 kts 288°
2026-04-20 06:17 35.11781 32.77091 24477 ft 404 kts 288°
2026-04-20 06:18 35.12651 32.73870 24886 ft 406 kts 288°
2026-04-20 06:18 35.13543 32.70579 25297 ft 408 kts 288°
2026-04-20 06:18 35.14437 32.67291 25699 ft 410 kts 288°
2026-04-20 06:18 35.15337 32.63980 26075 ft 412 kts 288°
2026-04-20 06:19 35.16241 32.60643 26464 ft 413 kts 288°
2026-04-20 06:19 35.17143 32.57299 26834 ft 415 kts 288°
2026-04-20 06:19 35.18045 32.53951 27189 ft 416 kts 288°
2026-04-20 06:19 35.18952 32.50578 27522 ft 418 kts 289°
2026-04-20 06:20 35.19863 32.47196 27840 ft 420 kts 289°
2026-04-20 06:20 35.20764 32.43850 28146 ft 421 kts 289°
2026-04-20 06:20 35.21683 32.40439 28442 ft 422 kts 289°
2026-04-20 06:20 35.22603 32.37023 28725 ft 424 kts 289°
2026-04-20 06:21 35.23525 32.33592 29000 ft 425 kts 289°
2026-04-20 06:21 35.24448 32.30144 29258 ft 426 kts 289°
2026-04-20 06:21 35.25368 32.26692 29499 ft 428 kts 289°
2026-04-20 06:21 35.26290 32.23227 29738 ft 428 kts 289°
2026-04-20 06:22 35.27213 32.19764 30052 ft 427 kts 289°
2026-04-20 06:22 35.28130 32.16315 30362 ft 426 kts 289°
2026-04-20 06:22 35.29047 32.12867 30656 ft 425 kts 289°
2026-04-20 06:22 35.29960 32.09435 30949 ft 424 kts 289°
2026-04-20 06:23 35.30875 32.05996 31241 ft 424 kts 289°
2026-04-20 06:23 35.31786 32.02565 31527 ft 423 kts 289°
2026-04-20 06:23 35.32691 31.99138 31812 ft 423 kts 289°
2026-04-20 06:23 35.33593 31.95711 32091 ft 422 kts 289°
2026-04-20 06:24 35.34489 31.92294 32403 ft 421 kts 289°
2026-04-20 06:24 35.35381 31.88891 32702 ft 420 kts 289°
2026-04-20 06:24 35.36275 31.85488 32987 ft 419 kts 289°
2026-04-20 06:24 35.37168 31.82093 33283 ft 418 kts 289°
2026-04-20 06:25 35.38046 31.78744 33555 ft 417 kts 289°
2026-04-20 06:25 35.38944 31.75317 33837 ft 416 kts 289°
2026-04-20 06:25 35.39814 31.71989 34118 ft 415 kts 289°
2026-04-20 06:25 35.40707 31.68573 34397 ft 415 kts 289°
2026-04-20 06:26 35.41587 31.65208 34666 ft 414 kts 289°
2026-04-20 06:26 35.42453 31.61893 34919 ft 414 kts 288°
2026-04-20 06:26 35.43344 31.58485 35168 ft 414 kts 288°
2026-04-20 06:26 35.44208 31.55165 35398 ft 414 kts 288°
2026-04-20 06:27 35.45093 31.51764 35628 ft 414 kts 288°
2026-04-20 06:27 35.45965 31.48402 35837 ft 413 kts 288°
2026-04-20 06:27 35.46837 31.45046 36074 ft 413 kts 288°
2026-04-20 06:27 35.47693 31.41737 36282 ft 412 kts 288°
2026-04-20 06:28 35.48557 31.38385 36484 ft 412 kts 287°
2026-04-20 06:28 35.49415 31.35036 36681 ft 412 kts 287°
2026-04-20 06:28 35.50272 31.31688 36891 ft 410 kts 287°
2026-04-20 06:28 35.51130 31.28356 37134 ft 408 kts 287°
2026-04-20 06:29 35.51987 31.25041 37387 ft 406 kts 287°
2026-04-20 06:29 35.52837 31.21743 37613 ft 404 kts 287°
2026-04-20 06:29 35.53680 31.18455 37808 ft 403 kts 287°
2026-04-20 06:29 35.54520 31.15169 37913 ft 404 kts 287°
2026-04-20 06:30 35.56194 31.08597 37935 ft 403 kts 287°
2026-04-20 06:30 35.57875 31.02019 37933 ft 403 kts 287°
2026-04-20 06:31 35.59537 30.95497 37935 ft 402 kts 287°
2026-04-20 06:31 35.61198 30.88937 37932 ft 402 kts 287°
2026-04-20 06:32 35.62859 30.82364 37936 ft 403 kts 287°
2026-04-20 06:32 35.64525 30.75784 37948 ft 403 kts 287°
2026-04-20 06:33 35.66179 30.69201 37960 ft 403 kts 287°
2026-04-20 06:33 35.67835 30.62601 37952 ft 403 kts 287°
2026-04-20 06:34 35.69489 30.56000 37961 ft 404 kts 287°
2026-04-20 06:35 35.71962 30.46093 37961 ft 404 kts 287°
2026-04-20 06:35 35.73601 30.39488 37970 ft 403 kts 287°
2026-04-20 06:36 35.75233 30.32930 37978 ft 403 kts 287°
2026-04-20 06:36 35.76872 30.26327 37978 ft 403 kts 287°
2026-04-20 06:37 35.78503 30.19716 37964 ft 403 kts 287°
2026-04-20 06:37 35.80121 30.13109 37969 ft 403 kts 287°
2026-04-20 06:38 35.81746 30.06501 37977 ft 403 kts 287°
2026-04-20 06:38 35.83366 29.99893 37968 ft 403 kts 287°
2026-04-20 06:39 35.85088 29.93323 37970 ft 403 kts 289°
2026-04-20 06:39 35.86897 29.86790 37964 ft 402 kts 289°
2026-04-20 06:40 35.88702 29.80256 37966 ft 402 kts 289°
2026-04-20 06:40 35.90474 29.73715 37968 ft 402 kts 288°
2026-04-20 06:41 35.92230 29.67163 37970 ft 402 kts 288°
2026-04-20 06:41 35.93980 29.60663 37976 ft 402 kts 288°
2026-04-20 06:42 35.95738 29.54108 37963 ft 402 kts 288°
2026-04-20 06:42 35.97498 29.47565 37970 ft 401 kts 288°
2026-04-20 06:43 35.99261 29.41026 37964 ft 401 kts 288°
2026-04-20 06:43 36.00732 29.35552 37964 ft 402 kts 288°
2026-04-20 06:44 36.02482 29.29032 37966 ft 402 kts 288°
2026-04-20 06:44 36.04234 29.22461 37963 ft 403 kts 288°
2026-04-20 06:45 36.05990 29.15867 37960 ft 404 kts 288°
2026-04-20 06:45 36.07739 29.09269 37967 ft 404 kts 288°
2026-04-20 06:46 36.09486 29.02673 37974 ft 404 kts 288°
2026-04-20 06:46 36.11225 28.96073 37978 ft 403 kts 288°
2026-04-20 06:47 36.12966 28.89478 37977 ft 403 kts 288°
2026-04-20 06:47 36.14704 28.82887 37978 ft 403 kts 288°
2026-04-20 06:48 36.16435 28.76291 37972 ft 403 kts 288°
2026-04-20 06:48 36.18154 28.69695 37969 ft 403 kts 288°
2026-04-20 06:49 36.19872 28.63094 37978 ft 403 kts 288°
2026-04-20 06:49 36.21584 28.56500 37978 ft 402 kts 288°
2026-04-20 06:50 36.23295 28.49898 37963 ft 402 kts 288°
2026-04-20 06:50 36.24988 28.43354 37979 ft 401 kts 287°
2026-04-20 06:51 36.26697 28.36728 37981 ft 401 kts 287°
2026-04-20 06:51 36.28382 28.30178 37984 ft 401 kts 287°
2026-04-20 06:52 36.30069 28.23596 37985 ft 401 kts 287°
2026-04-20 06:52 36.31746 28.17010 37984 ft 400 kts 287°
2026-04-20 06:53 36.33423 28.10417 37984 ft 400 kts 287°
2026-04-20 06:53 36.35501 28.04019 37982 ft 400 kts 293°
2026-04-20 06:54 36.37776 27.97710 37979 ft 400 kts 293°
2026-04-20 06:54 36.40035 27.91405 37979 ft 400 kts 293°
2026-04-20 06:55 36.42270 27.85140 37981 ft 400 kts 293°
2026-04-20 06:55 36.44527 27.78809 37979 ft 400 kts 293°
2026-04-20 06:56 36.46778 27.72482 37980 ft 401 kts 293°
2026-04-20 06:56 36.49035 27.66145 37983 ft 401 kts 293°
2026-04-20 06:57 36.51289 27.59808 37986 ft 401 kts 293°
2026-04-20 06:57 36.53538 27.53452 37993 ft 402 kts 293°
2026-04-20 06:58 36.55795 27.47076 37997 ft 402 kts 292°
2026-04-20 06:58 36.58040 27.40706 38003 ft 403 kts 292°
2026-04-20 06:59 36.60290 27.34319 38009 ft 403 kts 292°
2026-04-20 06:59 36.62547 27.27905 38014 ft 404 kts 292°
2026-04-20 07:00 36.64796 27.21479 38024 ft 405 kts 292°
2026-04-20 07:00 36.67038 27.15068 38030 ft 405 kts 292°
2026-04-20 07:01 36.69263 27.08679 38030 ft 406 kts 292°
2026-04-20 07:01 36.71504 27.02230 38034 ft 406 kts 292°
2026-04-20 07:02 36.73750 26.95768 38036 ft 406 kts 292°
2026-04-20 07:02 36.75987 26.89311 38034 ft 406 kts 292°
2026-04-20 07:03 36.78222 26.82832 38034 ft 406 kts 292°
2026-04-20 07:03 36.80459 26.76343 38034 ft 407 kts 292°
2026-04-20 07:04 36.82694 26.69854 38038 ft 407 kts 292°
2026-04-20 07:04 36.84924 26.63360 38041 ft 407 kts 292°
2026-04-20 07:04 36.86035 26.60112 37443 ft 410 kts 292°
2026-04-20 07:05 36.87163 26.56813 36432 ft 415 kts 292°
2026-04-20 07:05 36.88285 26.53528 35476 ft 417 kts 292°
2026-04-20 07:05 36.89423 26.50184 34542 ft 419 kts 292°
2026-04-20 07:05 36.90575 26.46784 33719 ft 418 kts 292°
2026-04-20 07:06 36.91700 26.43477 32678 ft 422 kts 292°
2026-04-20 07:06 36.92854 26.40063 31877 ft 420 kts 292°
2026-04-20 07:06 36.93980 26.36727 30770 ft 425 kts 293°
2026-04-20 07:06 36.95148 26.33315 29688 ft 428 kts 294°
2026-04-20 07:07 36.96331 26.29893 28657 ft 430 kts 294°
2026-04-20 07:07 36.97503 26.26449 27551 ft 431 kts 293°
2026-04-20 07:07 36.98662 26.22987 26757 ft 427 kts 293°
2026-04-20 07:07 36.99813 26.19592 25947 ft 422 kts 294°
2026-04-20 07:08 37.00963 26.16216 25074 ft 421 kts 293°
2026-04-20 07:08 37.02091 26.12858 24425 ft 413 kts 294°
2026-04-20 07:08 37.03211 26.09575 23651 ft 410 kts 294°
2026-04-20 07:08 37.04333 26.06295 22859 ft 408 kts 294°
2026-04-20 07:09 37.05438 26.03042 22170 ft 404 kts 294°
2026-04-20 07:09 37.06526 25.99825 21552 ft 399 kts 294°
2026-04-20 07:09 37.07592 25.96646 20871 ft 395 kts 294°
2026-04-20 07:09 37.08668 25.93467 20052 ft 396 kts 294°
2026-04-20 07:10 37.09726 25.90341 19637 ft 387 kts 294°
2026-04-20 07:10 37.10775 25.87239 18962 ft 385 kts 294°
2026-04-20 07:10 37.11811 25.84174 18507 ft 378 kts 294°
2026-04-20 07:10 37.12826 25.81156 17977 ft 374 kts 293°
2026-04-20 07:11 37.13830 25.78138 17270 ft 375 kts 293°
2026-04-20 07:11 37.14821 25.75139 16819 ft 369 kts 293°
2026-04-20 07:11 37.15774 25.72240 16394 ft 362 kts 294°
2026-04-20 07:11 37.16753 25.69298 15794 ft 361 kts 294°
2026-04-20 07:12 37.17719 25.66443 15209 ft 359 kts 294°
2026-04-20 07:12 37.18689 25.63589 14768 ft 354 kts 294°
2026-04-20 07:12 37.19635 25.60749 14134 ft 353 kts 294°
2026-04-20 07:12 37.20576 25.57900 13602 ft 351 kts 294°
2026-04-20 07:13 37.21503 25.55079 13003 ft 349 kts 294°
2026-04-20 07:13 37.22430 25.52267 12369 ft 349 kts 294°
2026-04-20 07:13 37.23357 25.49462 11790 ft 347 kts 294°
2026-04-20 07:13 37.24266 25.46672 11180 ft 345 kts 294°
2026-04-20 07:14 37.25148 25.43904 10608 ft 330 kts 294°
2026-04-20 07:14 37.25936 25.41392 10485 ft 289 kts 294°
2026-04-20 07:14 37.26673 25.39072 10458 ft 287 kts 295°
2026-04-20 07:14 37.27420 25.36759 10452 ft 286 kts 295°
2026-04-20 07:15 37.28135 25.34426 10456 ft 287 kts 292°
2026-04-20 07:15 37.28790 25.32050 10307 ft 287 kts 291°
2026-04-20 07:15 37.29410 25.29675 10168 ft 286 kts 291°
2026-04-20 07:15 37.30023 25.27305 10085 ft 285 kts 291°
2026-04-20 07:16 37.30639 25.24926 9836 ft 288 kts 291°
2026-04-20 07:16 37.31274 25.22545 9231 ft 283 kts 292°
2026-04-20 07:16 37.31906 25.20238 8427 ft 282 kts 292°
2026-04-20 07:16 37.32531 25.17941 8036 ft 280 kts 292°
2026-04-20 07:17 37.33153 25.15637 7633 ft 278 kts 292°
2026-04-20 07:17 37.33766 25.13340 7031 ft 272 kts 291°
2026-04-20 07:17 37.34344 25.11114 6341 ft 266 kts 291°
2026-04-20 07:17 37.34918 25.08961 5871 ft 242 kts 295°
2026-04-20 07:18 37.35717 25.07152 6025 ft 238 kts 314°
2026-04-20 07:18 37.37101 25.06074 6080 ft 236 kts 346°
2026-04-20 07:18 37.38749 25.05854 5627 ft 241 kts
2026-04-20 07:18 37.40304 25.06425 5149 ft 229 kts 26°
2026-04-20 07:19 37.41667 25.07522 4916 ft 236 kts 30°
2026-04-20 07:19 37.43022 25.08540 4676 ft 217 kts 28°
2026-04-20 07:19 37.44286 25.09471 4255 ft 204 kts 28°
2026-04-20 07:19 37.45473 25.10371 3827 ft 198 kts 29°
2026-04-20 07:20 37.46645 25.11244 3716 ft 194 kts 27°
2026-04-20 07:20 37.47815 25.12103 3635 ft 195 kts 29°
2026-04-20 07:20 37.48946 25.12996 3565 ft 194 kts 30°
2026-04-20 07:20 37.50097 25.13902 3524 ft 195 kts 30°
2026-04-20 07:21 37.51199 25.14900 3425 ft 199 kts 46°
2026-04-20 07:21 37.51816 25.16433 3310 ft 198 kts 73°
2026-04-20 07:21 37.52150 25.18136 3036 ft 199 kts 72°
2026-04-20 07:21 37.52536 25.19791 2779 ft 193 kts 70°
2026-04-20 07:22 37.52916 25.21373 2563 ft 187 kts 72°
2026-04-20 07:22 37.53230 25.22904 2394 ft 178 kts 83°
2026-04-20 07:22 37.53053 25.24398 2256 ft 172 kts 114°
2026-04-20 07:22 37.52577 25.25766 2219 ft 170 kts 111°
2026-04-20 07:23 37.52222 25.27178 2215 ft 170 kts 110°
2026-04-20 07:23 37.51701 25.28502 2140 ft 168 kts 126°
2026-04-20 07:23 37.50992 25.29657 2042 ft 166 kts 133°
2026-04-20 07:23 37.50231 25.30733 1931 ft 164 kts 132°
2026-04-20 07:24 37.49458 25.31780 1899 ft 157 kts 138°
2026-04-20 07:24 37.48600 25.32536 1729 ft 149 kts 153°
2026-04-20 07:24 37.47637 25.33001 1419 ft 147 kts 164°
2026-04-20 07:24 37.46671 25.33408 1038 ft 148 kts 158°
2026-04-20 07:25 37.45730 25.33857 745 ft 143 kts 162°
2026-04-20 07:25 37.44799 25.34247 533 ft 140 kts 159°
2026-04-20 07:25 37.43897 25.34658 412 ft 127 kts 160°
2026-04-20 07:25 37.43302 25.34918 410 ft 65 kts 161°
2026-04-20 07:26 37.43120 25.34997 413 ft 23 kts 161°
2026-04-20 07:26 37.42962 25.35062 414 ft 25 kts 162°
2026-04-20 07:26 37.42836 25.35119 410 ft 10 kts 160°
2026-04-20 07:26 37.42772 25.35132 411 ft 9 kts 187°
2026-04-20 07:27 37.42741 25.35127 410 ft 6 kts 184°
2026-04-20 07:27 37.42742 25.35143 410 ft 4 kts 29°
2026-04-20 07:27 37.42803 25.35137 409 ft 15 kts 344°
2026-04-20 07:27 37.42901 25.35094 410 ft 15 kts 340°
2026-04-20 07:28 37.43004 25.35047 414 ft 17 kts 340°
2026-04-20 07:28 37.43124 25.34995 413 ft 20 kts 340°
2026-04-20 07:28 37.43257 25.34934 413 ft 11 kts 341°
2026-04-20 07:28 37.43304 25.34913 413 ft 10 kts 340°
2026-04-20 07:29 37.43370 25.34882 412 ft 10 kts 338°
2026-04-20 07:29 37.43399 25.34828 407 ft 4 kts 291°
2026-04-20 07:29 37.43413 25.34785 407 ft 7 kts 292°
2026-04-20 07:29 37.43422 25.34763 408 ft 0 kts 298°
2026-04-20 07:30 37.43427 25.34757 408 ft 2 kts 320°
2026-04-20 07:30 37.43438 25.34730 408 ft 4 kts 275°
2026-04-20 07:30 37.43430 25.34692 407 ft 4 kts 253°
2026-04-20 07:30 37.43427 25.34682 407 ft 0 kts 252°
2026-04-20 07:31 37.43427 25.34679 407 ft 0 kts 252°